Saratoga Shively Field Airpor, WY

2:08 AM MST on February 24, 2018 (GMT -0700)
Shively

Weather History for KSAA - January, 2014

Change the Weather History Date:

Friday, January 17, 2014

  Actual Average Record
Temperature  
Mean Temperature 26 °F -  
Max Temperature 41 °F 34 °F 41 °F (2014)
Min Temperature 10 °F 12 °F -4 °F (2017)
Degree Days  
Heating Degree Days 40    
Moisture  
Dew Point 14 °F    
Average Humidity 62    
Maximum Humidity 93    
Minimum Humidity 31    
Precipitation  
Precipitation 0.00 in - - ()
Sea Level Pressure  
Sea Level Pressure 30.21 in    
Wind  
Wind Speed 7 mph (SSW)    
Max Wind Speed 18 mph    
Max Gust Speed 22 mph    
Visibility 10 miles    
Events      
Averages and records for this station are not official NWS values.
T = Trace of Precipitation, MM = Missing Value Source: NWS Daily Summary

Daily Weather History Graph

Daily Weather History Graph

Search for Another Location

Airport or City:

Trip Planner

Search our weather history database for the weather conditions in past years. The results will help you decide how hot, cold, wet, or windy it might be!

Date:

Astronomy

Jan. 17, 2014 Rise Set
Actual Time 7:30 AM MST 5:05 PM MST
Civil Twilight 6:59 AM MST 5:35 PM MST
Nautical Twilight 6:25 AM MST 6:09 PM MST
Astronomical Twilight 5:52 AM MST 6:42 PM MST
Moon 6:56 PM MST (1/17) 7:58 AM MST (1/17)
Length of Visible Light 10h 35m
Length of Day
9h 34m
Full, 98% of the Moon is Illuminated
Jan 17
Full
Jan 23
Last Quarter
Jan 30
New
Feb 6
First Quarter
Feb 14
Full

Hourly Weather History & Observations

Time (MST) Temp. Windchill Dew Point Humidity Pressure Visibility Wind Dir Wind Speed Gust Speed Precip Events Conditions
12:15 AM 26.6 °F 21.2 °F 15.8 °F 64% 30.29 in 10.0 mi SSW 4.6 mph - N/A   Clear
12:35 AM 21.2 °F 12.6 °F 14.0 °F 74% 30.28 in 10.0 mi SSE 6.9 mph - N/A   Clear
12:55 AM 23.0 °F 10.1 °F 17.6 °F 80% 30.27 in 10.0 mi SW 15.0 mph 21.9 mph N/A   Clear
1:15 AM 17.6 °F 8.2 °F 12.2 °F 79% 30.26 in 10.0 mi SSE 6.9 mph - N/A   Clear
1:35 AM 14.0 °F 8.2 °F 12.2 °F 93% 30.26 in 10.0 mi SE 3.5 mph - N/A   Clear
1:55 AM 14.0 °F - 10.4 °F 86% 30.26 in 10.0 mi Calm Calm - N/A   Clear
2:15 AM 14.0 °F - 10.4 °F 86% 30.27 in 10.0 mi Calm Calm - N/A   Clear
2:37 AM 23.0 °F 17.0 °F 14.0 °F 68% 30.27 in 10.0 mi SW 4.6 mph - N/A   Clear
2:55 AM 19.4 °F - 10.4 °F 68% 30.27 in 10.0 mi Calm Calm - N/A   Clear
3:15 AM 14.0 °F 8.2 °F 10.4 °F 86% 30.26 in 10.0 mi SSE 3.5 mph - N/A   Clear
3:35 AM 14.0 °F 6.5 °F 10.4 °F 86% 30.25 in 10.0 mi SSE 4.6 mph - N/A   Clear
3:55 AM 14.0 °F 2.9 °F 10.4 °F 86% 30.25 in 10.0 mi SE 8.1 mph - N/A   Clear
4:15 AM 14.0 °F 5.1 °F 10.4 °F 86% 30.25 in 10.0 mi SSE 5.8 mph - N/A   Clear
4:35 AM 14.0 °F - 10.4 °F 86% 30.25 in 10.0 mi Calm Calm - N/A   Clear
4:55 AM 12.2 °F - 8.6 °F 85% 30.25 in 10.0 mi Calm Calm - N/A   Clear
5:16 AM 10.4 °F - 8.6 °F 92% 30.26 in 10.0 mi Calm Calm - N/A   Clear
5:35 AM 10.4 °F 4.0 °F 8.6 °F 92% 30.26 in 10.0 mi SSE 3.5 mph - N/A   Clear
5:55 AM 14.0 °F 8.2 °F 8.6 °F 79% 30.25 in 10.0 mi East 3.5 mph - N/A   Clear
6:15 AM 14.0 °F 0.5 °F 10.4 °F 86% 30.25 in 10.0 mi South 11.5 mph - N/A   Clear
6:35 AM 15.8 °F 5.1 °F 12.2 °F 86% 30.25 in 10.0 mi South 8.1 mph - N/A   Clear
6:55 AM 15.8 °F 5.1 °F 12.2 °F 86% 30.25 in 10.0 mi South 8.1 mph - N/A   Scattered Clouds
7:15 AM 17.6 °F 8.2 °F 12.2 °F 79% 30.24 in 10.0 mi SSE 6.9 mph - N/A   Mostly Cloudy
7:35 AM 14.0 °F 2.9 °F 10.4 °F 86% 30.24 in 10.0 mi SE 8.1 mph - N/A   Scattered Clouds
7:55 AM 17.6 °F 9.3 °F 12.2 °F 79% 30.25 in 10.0 mi SE 5.8 mph - N/A   Clear
8:15 AM 19.4 °F 7.9 °F 12.2 °F 74% 30.25 in 10.0 mi South 10.4 mph - N/A   Clear
8:35 AM 21.2 °F 9.5 °F 14.0 °F 74% 30.25 in 10.0 mi South 11.5 mph - N/A   Clear
8:55 AM 23.0 °F 13.9 °F 14.0 °F 68% 30.25 in 10.0 mi SSE 8.1 mph - N/A   Clear
9:16 AM 26.6 °F 17.5 °F 15.8 °F 64% 30.26 in 10.0 mi SE 9.2 mph - N/A   Clear
9:35 AM 28.4 °F 20.4 °F 15.8 °F 59% 30.25 in 10.0 mi South 8.1 mph - N/A   Clear
9:55 AM 30.2 °F 22.6 °F 17.6 °F 60% 30.25 in 10.0 mi SSE 8.1 mph - N/A   Clear
10:15 AM 32.0 °F 24.2 °F 15.8 °F 51% 30.25 in 10.0 mi SE 9.2 mph - N/A   Clear
10:35 AM 32.0 °F 25.6 °F 17.6 °F 55% 30.25 in 10.0 mi SE 6.9 mph - N/A   Clear
10:55 AM 33.8 °F 27.0 °F 15.8 °F 48% 30.24 in 10.0 mi SE 8.1 mph - N/A   Clear
11:15 AM 33.8 °F 29.6 °F 14.0 °F 44% 30.23 in 10.0 mi South 4.6 mph - N/A   Clear
11:35 AM 35.6 °F 32.8 °F 14.0 °F 41% 30.22 in 10.0 mi South 3.5 mph - N/A   Clear
11:55 AM 35.6 °F - 12.2 °F 38% 30.21 in 10.0 mi Calm Calm - N/A   Clear
12:15 PM 35.6 °F 30.7 °F 14.0 °F 41% 30.20 in 10.0 mi WSW 5.8 mph - N/A   Clear
12:35 PM 37.4 °F 33.8 °F 14.0 °F 38% 30.19 in 10.0 mi SW 4.6 mph - N/A   Clear
12:55 PM 37.4 °F 29.8 °F 12.2 °F 36% 30.17 in 10.0 mi WSW 11.5 mph 21.9 mph N/A   Clear
1:15 PM 39.2 °F 31.2 °F 12.2 °F 33% 30.16 in 10.0 mi WSW 13.8 mph 21.9 mph N/A   Clear
1:35 PM 41.0 °F 35.2 °F 14.0 °F 33% 30.14 in 10.0 mi SSW 9.2 mph - N/A   Clear
1:55 PM 41.0 °F 36.4 °F 14.0 °F 33% 30.15 in 10.0 mi SW 6.9 mph - N/A   Clear
2:15 PM 41.0 °F 34.3 °F 12.2 °F 31% 30.15 in 10.0 mi SW 11.5 mph 16.1 mph N/A   Clear
2:35 PM 41.0 °F 34.3 °F 12.2 °F 31% 30.16 in 10.0 mi WSW 11.5 mph 17.3 mph N/A   Clear
2:55 PM 41.0 °F 33.9 °F 12.2 °F 31% 30.15 in 10.0 mi WSW 12.7 mph 18.4 mph N/A   Clear
3:15 PM 39.2 °F 30.8 °F 14.0 °F 36% 30.14 in 10.0 mi WSW 15.0 mph 19.6 mph N/A   Clear
3:35 PM 39.2 °F 31.2 °F 14.0 °F 36% 30.15 in 10.0 mi WSW 13.8 mph - N/A   Clear
3:55 PM 37.4 °F 30.3 °F 14.0 °F 38% 30.16 in 10.0 mi WSW 10.4 mph - N/A   Clear
4:15 PM 37.4 °F 28.9 °F 15.8 °F 41% 30.16 in 10.0 mi WSW 13.8 mph 18.4 mph N/A   Clear
4:35 PM 35.6 °F 27.1 °F 15.8 °F 44% 30.15 in 10.0 mi WSW 12.7 mph - N/A   Clear
4:55 PM 33.8 °F 25.3 °F 15.8 °F 48% 30.16 in 10.0 mi WSW 11.5 mph - N/A   Clear
5:15 PM 32.0 °F 23.6 °F 15.8 °F 51% 30.15 in 10.0 mi SW 10.4 mph - N/A   Clear
5:35 PM 32.0 °F 23.0 °F 15.8 °F 51% 30.15 in 10.0 mi WSW 11.5 mph - N/A   Clear
5:55 PM 32.0 °F 23.0 °F 15.8 °F 51% 30.15 in 10.0 mi WSW 11.5 mph - N/A   Clear
6:15 PM 32.0 °F 24.2 °F 15.8 °F 51% 30.16 in 10.0 mi West 9.2 mph - N/A   Clear
6:35 PM 32.0 °F 22.5 °F 15.8 °F 51% 30.16 in 10.0 mi WSW 12.7 mph - N/A   Clear
6:55 PM 30.2 °F 20.8 °F 15.8 °F 55% 30.17 in 10.0 mi West 11.5 mph - N/A   Clear
7:15 PM 30.2 °F 21.3 °F 15.8 °F 55% 30.16 in 10.0 mi West 10.4 mph - N/A   Clear
7:35 PM 30.2 °F 18.9 °F 17.6 °F 60% 30.16 in 10.0 mi WSW 16.1 mph - N/A   Clear
7:55 PM 30.2 °F 19.3 °F 17.6 °F 60% 30.16 in 10.0 mi WSW 15.0 mph - N/A   Mostly Cloudy
8:15 PM 32.0 °F 20.5 °F 17.6 °F 55% 30.16 in 10.0 mi WSW 18.4 mph 21.9 mph N/A   Overcast
8:35 PM 32.0 °F 22.1 °F 17.6 °F 55% 30.17 in 10.0 mi WSW 13.8 mph - N/A   Mostly Cloudy
8:55 PM 30.2 °F 18.5 °F 17.6 °F 60% 30.17 in 10.0 mi WSW 17.3 mph 21.9 mph N/A   Clear
9:15 PM 30.2 °F 19.8 °F 17.6 °F 60% 30.18 in 10.0 mi WSW 13.8 mph - N/A   Clear
9:35 PM 28.4 °F 17.5 °F 17.6 °F 64% 30.18 in 10.0 mi WSW 13.8 mph - N/A   Clear
9:56 PM 26.6 °F 15.7 °F 17.6 °F 69% 30.19 in 10.0 mi WSW 12.7 mph - N/A   Clear
10:15 PM 26.6 °F 19.1 °F 17.6 °F 69% 30.20 in 10.0 mi WSW 6.9 mph - N/A   Clear
10:35 PM 26.6 °F - 15.8 °F 64% 30.20 in 10.0 mi Calm Calm - N/A   Clear
10:55 PM 26.6 °F - 15.8 °F 64% 30.20 in 10.0 mi Calm Calm - N/A   Clear
11:15 PM 26.6 °F - 15.8 °F 64% 30.21 in 10.0 mi Calm Calm - N/A   Clear
11:35 PM 26.6 °F - 14.0 °F 59% 30.21 in 10.0 mi Calm Calm - N/A   Clear
11:55 PM 26.6 °F - 14.0 °F 59% 30.21 in 10.0 mi Calm Calm - N/A   Clear